This demonstration page uses our WeatherBlox Daily Observations layout. Learn more.

Left ArrowRight Arrow

38.88101, -77.10428

Hourly Observations for January 31, 2021

Temp ( °F °C ) Dew Point ( °F °C ) Humidity (%) Winds ( mph kmh ) Pressure ( in mb ) Visibility ( mi km ) Precip ( " mm )
12:52 am 00:52 Cloudy 33 0.6 16 -8.9 49 49 SSE 6 9 30.30 1026 10 16 0.00 0.00
1:52 am 01:52 Cloudy 33 0.6 17 -8.3 52 52 SE 5 7 30.32 1027 10 16 0.00 0.00
2:52 am 02:52 Cloudy 33 0.6 18 -7.8 54 54 ESE 3 6 30.29 1026 10 16 0.00 0.00
3:52 am 03:52 Cloudy with Light Snow 32 0 23 -5 69 69 SSW 14 22 30.31 1026 3 5 0.00 0.00
3:55 am 03:55 Cloudy with Light Snow 31 -0.6 23 -5 72 72 SSW 10 17 30.32 1027 2 3 0.00 0.00
3:57 am 03:57 Cloudy with Light Snow 31 -0.6 24 -4.4 76 76 SSW 10 17 30.32 1027 2 3 0.00 0.00
4:00 am 04:00 Cloudy with Light Snow 31 -0.6 24 -4.4 76 76 SSW 8 13 30.32 1027 2 3 0.00 0.00
4:07 am 04:07 Cloudy with Light Snow 30 -1.1 25 -3.9 82 82 S 7 11 30.31 1027 1 2 0.00 0.00
4:34 am 04:34 Cloudy with Light Snow 30 -1.1 27 -2.8 88 88 S 6 9 30.29 1026 2 2 0.01 0.25
4:43 am 04:43 Cloudy with Light Snow 30 -1.1 28 -2.2 92 92 SSE 7 11 30.29 1026 2 2 0.02 0.51
4:52 am 04:52 Cloudy with Light Snow 30 -1.1 27 -2.8 88 88 SSE 6 9 30.29 1026 2 3 0.02 0.51
4:59 am 04:59 Cloudy with Light Snow 30 -1.1 28 -2.2 92 92 SSE 6 9 30.29 1026 3 5 0.00 0.00
5:11 am 05:11 Cloudy with Light Snow 30 -1.1 28 -2.2 92 92 SSE 7 11 30.29 1026 3 5 0.00 0.00
5:20 am 05:20 Cloudy with Light Snow 31 -0.6 28 -2.2 89 89 S 8 13 30.29 1026 2 3 0.00 0.00
5:49 am 05:49 Cloudy with Light Snow 30 -1 28 -2 93 93 SSE 7 11 30.28 1026 3 5 0.01 0.25
5:52 am 05:52 Cloudy with Light Snow 30 -1.1 28 -2.2 92 92 SSE 7 11 30.27 1025 4 6 0.01 0.25
6:00 am 06:00 Cloudy with Light Snow 30 -1.1 27 -2.8 88 88 SSE 3 6 30.27 1025 4 6 0.00 0.00
6:04 am 06:04 Cloudy with Light Snow 30 -1.1 28 -2.2 92 92 SSE 5 7 30.26 1025 3 5 0.00 0.00
6:22 am 06:22 Cloudy with Light Snow 30 -1.1 28 -2.2 92 92 SE 3 6 30.25 1025 4 6 0.00 0.00
6:52 am 06:52 Cloudy with Light Snow 31 -0.6 27 -2.8 85 85 SSE 8 13 30.25 1024 3 5 0.00 0.00
7:22 am 07:22 Cloudy with Light Snow 31 -0.6 28 -2.2 89 89 S 9 15 30.25 1025 2 3 0.01 0.25
7:52 am 07:52 Cloudy with Light Snow 31 -0.6 29 -1.7 92 92 S 8 13 30.26 1025 1 2 0.02 0.51
8:12 am 08:12 Cloudy with Light Snow 31 -0.6 29 -1.7 92 92 S 7 11 30.26 1025 1 1 0.01 0.25
8:35 am 08:35 Cloudy with Light Snow 31 -0.6 29 -1.7 92 92 S 9 15 30.25 1025 1 1 0.02 0.51
8:46 am 08:46 Cloudy with Snow 30 -1 28 -2 93 93 SSE 6 9 30.25 1025 1 1 0.03 0.76
8:52 am 08:52 Cloudy with Snow 31 -0.6 29 -1.7 92 92 SSE 5 7 30.24 1024 0 0 0.04 1.02
9:13 am 09:13 Cloudy with Light Snow 31 -0.6 29 -1.7 92 92 SSE 3 6 30.25 1025 1 2 0.01 0.25
9:24 am 09:24 Cloudy with Light Snow 31 -0.6 29 -1.7 92 92 SE 5 7 30.24 1024 1 2 0.02 0.51
9:43 am 09:43 Cloudy with Light Snow 31 -0.6 29 -1.7 92 92 Calm 30.24 1024 3 4 0.02 0.51
9:52 am 09:52 Cloudy with Light Snow 31 -0.6 29 -1.7 92 92 Calm 30.24 1024 2 2 0.02 0.51
10:12 am 10:12 Cloudy with Light Snow 32 0 29 -1.7 88 88 Calm 30.24 1024 1 2 0.01 0.25
10:40 am 10:40 Cloudy with Light Snow 32 0 29 -1.7 88 88 SE 5 7 30.23 1024 1 1 0.01 0.25
10:52 am 10:52 Cloudy with Light Snow 32 0 30 -1.1 92 92 Calm 30.22 1024 1 1 0.02 0.51
11:00 am 11:00 Cloudy with Light Snow 32 0 30 -1.1 92 92 Calm 30.22 1023 1 1 0.00 0.00
11:08 am 11:08 Cloudy with Light Snow 32 0 30 -1.1 92 92 Calm 30.22 1023 1 1 0.01 0.25
11:13 am 11:13 Cloudy with Light Snow 32 0 30 -1.1 92 92 ESE 6 9 30.22 1023 1 2 0.01 0.25
11:52 am 11:52 Cloudy with Light Snow 32 0 30 -1.1 92 92 E 7 11 30.19 1022 1 2 0.02 0.51
12:52 pm 12:52 Cloudy with Light Snow 32 0 29 -1.7 88 88 E 8 13 30.14 1021 1 2 0.01 0.25
1:05 pm 13:05 Cloudy with Mist and Fog 33 0.6 29 -1.7 85 85 E 12 19 30.14 1021 3 5 0.00 0.00
1:21 pm 13:21 Cloudy with Light Snow 33 0.6 29 -1.7 85 85 E 12 19 30.13 1020 2 3 0.00 0.00
1:44 pm 13:44 Cloudy with Light Snow 32 0 29 -1.7 88 88 ENE 10 17 30.11 1020 2 3 0.00 0.00
1:52 pm 13:52 Cloudy with Light Snow 32 0 29 -1.7 88 88 ENE 12 19 30.11 1020 2 2 0.00 0.00
2:52 pm 14:52 Cloudy with Light Snow 32 0 30 -1.1 92 92 NE 12 19 30.07 1018 1 2 0.04 1.02
3:43 pm 15:43 Cloudy with Light Snow 32 0 29 -1.7 88 88 ENE 12 19 30.06 1018 2 3 0.05 1.27
3:52 pm 15:52 Cloudy with Light Snow 32 0 29 -1.7 88 88 ENE 9 15 30.05 1018 3 4 0.05 1.27
4:00 pm 16:00 Cloudy with Light Snow 32 0 30 -1.1 92 92 NE 9 15 30.05 1018 2 3 0.01 0.25
4:16 pm 16:16 Cloudy with Light Snow 32 0 29 -1.7 88 88 ENE 9 15 30.06 1018 2 3 0.02 0.51
4:34 pm 16:34 Cloudy with Light Snow 32 0 30 -1.1 92 92 NE 12 19 30.05 1018 2 2 0.02 0.51
4:52 pm 16:52 Cloudy with Light Snow 32 0 30 -1.1 92 92 ENE 15 24 30.04 1017 2 3 0.03 0.76
5:06 pm 17:06 Cloudy with Light Snow 32 0 30 -1.1 92 92 NE 14 22 30.05 1018 2 2 0.01 0.25
5:09 pm 17:09 Cloudy with Light Snow 32 0 30 -1.1 92 92 NE 15 24 30.05 1018 2 2 0.01 0.25
5:32 pm 17:32 Cloudy with Light Snow 31 -0.6 29 -1.7 92 92 NE 14 22 30.04 1017 2 2 0.03 0.76
5:50 pm 17:50 Cloudy with Mist and Fog 30 -1 28 -2 93 93 NE 12 19 30.04 1017 2 3 0.04 1.02
5:52 pm 17:52 Cloudy with Mist and Fog 31 -0.6 29 -1.7 92 92 NNE 13 20 30.04 1017 3 4 0.04 1.02
5:54 pm 17:54 Cloudy with Mist and Fog 31 -0.6 29 -1.7 92 92 NNE 12 19 30.04 1017 3 4 0.00 0.00
5:59 pm 17:59 Cloudy with Mist and Fog 31 -0.6 29 -1.7 92 92 NNE 10 17 30.04 1017 3 5 0.00 0.00
6:06 pm 18:06 Cloudy with Mist and Fog 31 -0.6 29 -1.7 92 92 NE 12 19 30.04 1017 3 4 0.00 0.00
6:22 pm 18:22 Cloudy with Light Snow 31 -0.6 28 -2.2 89 89 NE 12 19 30.03 1017 2 3 0.02 0.51
6:31 pm 18:31 Cloudy with Light Snow 31 -0.6 29 -1.7 92 92 NE 14 22 30.03 1017 2 2 0.03 0.76
6:46 pm 18:46 Cloudy with Light Snow 30 -1 28 -2 93 93 NE 13 20 30.02 1017 2 3 0.04 1.02
6:52 pm 18:52 Cloudy with Light Snow 31 -0.6 29 -1.7 92 92 NNE 10 17 30.01 1016 3 4 0.05 1.27
6:54 pm 18:54 Cloudy with Light Snow 31 -0.6 29 -1.7 92 92 NNE 10 17 30.02 1017 3 5 0.00 0.00
7:00 pm 19:00 Cloudy with Mist and Fog 31 -0.6 29 -1.7 92 92 N 10 17 30.02 1017 4 6 0.00 0.00
7:05 pm 19:05 Cloudy with Mist and Fog 31 -0.6 29 -1.7 92 92 N 12 19 30.03 1017 5 8 0.00 0.00
7:46 pm 19:46 Cloudy with Mist and Fog 30 -1 28 -2 93 93 NNE 13 20 30.01 1016 3 4 0.00 0.00
7:52 pm 19:52 Cloudy with Light Wintry Mix 31 -0.6 29 -1.7 92 92 NNE 9 15 30.00 1016 3 4 0.00 0.00
8:10 pm 20:10 Cloudy with Light Wintry Mix 31 -0.6 29 -1.7 92 92 NNE 13 20 30.00 1016 3 4 0.01 0.25
8:20 pm 20:20 Cloudy with Light Freezing Drizzle 31 -0.6 29 -1.7 92 92 NE 14 22 29.99 1016 3 5 0.01 0.25
8:26 pm 20:26 Cloudy with Light Freezing Drizzle 32 0 29 -1.7 88 88 NE 15 24 29.98 1015 3 4 0.01 0.25
8:38 pm 20:38 Cloudy with Light Freezing Drizzle 32 0 30 -1.1 92 92 NE 13 20 29.97 1015 3 5 0.01 0.25
8:52 pm 20:52 Cloudy with Light Freezing Drizzle 32 0 29 -1.7 88 88 NNE 14 22 29.96 1015 3 5 0.02 0.51
9:52 pm 21:52 Cloudy with Light Freezing Drizzle 31 -0.6 29 -1.7 92 92 NNE 14 22 29.95 1014 3 5 0.00 0.00
11:52 pm 23:52 Cloudy with Light Freezing Drizzle 31 -0.6 28 -2.2 89 89 NNE 16 26 29.89 1012 4 6 0.00 0.00

Powered by AerisWeather